User: anonymous   Login
Location: *
(46.1200°N, 11.2700°E)
Time: 05:41:12
(UTC+00:00)
Language:

Cosmos 2184 Rocket - Orbit

View from above orbital plane
View from above orbital plane
View from above satellite
View from above satellite

Ground track
Ground track

The orbit data is extracted from the following two-line orbital elements,

1 21938U 92020B   21127.79629466  .00000020  00000-0  52587-5 0  9992
2 21938  82.9339  25.7683 0028941 186.0245 236.5082 13.75286612458251
Epoch (UTC): 07 May 2021 19:06:39
Eccentricity: 0.0028941
inclination: 82.9339°
perigee height: 959 km
apogee height: 1002 km
right ascension of ascending node: 25.7683°
argument of perigee: 186.0245°
revolutions per day: 13.75286612
mean anomaly at epoch: 236.5082°
orbit number at epoch: 45825

The dashed part of the orbit path shows where the satellite is in the earth's shadow,  

DLR